Regional Weather Roundup
Issued by NWS

Home | Current Version | Previous Version | Text Only | Print | Product List | Glossary Off
Versions: 1 2 3 4 5 6 7 8 9 10 11 12 13 14 15 16 17 18 19 20 21 22 23 24 25 26 27 28 29 30 31 32 33 34 35 36 37 38 39 40 41 42 43 44 45 46 47 48 49 50

000
ASUS43 KBIS 251302
RWRND

NORTH DAKOTA REGIONAL WEATHER ROUNDUP
NATIONAL WEATHER SERVICE BISMARCK ND
700 AM CST SAT FEB 25 2017

NOTE: "FAIR" INDICATES FEW OR NO CLOUDS BELOW 12,000 FEET WITH NO
SIGNIFICANT WEATHER AND/OR OBSTRUCTIONS TO VISIBILITY.


NDZ001>003-009>011-017-251400-
NORTHWEST NORTH DAKOTA

CITY           SKY/WX    TMP DP  RH WIND       PRES   REMARKS
WILLISTON      CLOUDY    19  17  92 N10       29.93F WCI   7
MINOT          CLOUDY    23  20  88 W15       29.89S WCI  10
$$

NDZ018>021-031>035-040>046-251400-
SOUTHWEST NORTH DAKOTA

CITY           SKY/WX    TMP DP  RH WIND       PRES   REMARKS
BISMARCK       CLOUDY    21  17  84 W6        29.92F WCI  13
DICKINSON      FLURRIES  21  16  81 NW5       29.85F WCI  15
GARRISON         N/A     21  18  88 W7        29.88F WCI  12
HETTINGER ARPT CLOUDY    18  14  84 W5        29.89F WCI  11
$$

NDZ004>008-012>016-024-026-027-054-251400-
NORTHEAST NORTH DAKOTA

CITY           SKY/WX    TMP DP  RH WIND       PRES   REMARKS
GRAND FORKS    CLOUDY    21  13  71 S6        29.90F WCI  13
GRND FRKS AFB  CLOUDY    20  15  82 W8        29.90F WCI  10
DEVILS LAKE    CLOUDY    20  17  88 W9        29.87F WCI   9
$$

NDZ022-023-025-028>030-036>039-047>053-251400-
SOUTHEAST NORTH DAKOTA

CITY           SKY/WX    TMP DP  RH WIND       PRES   REMARKS
FARGO          CLOUDY    20  15  81 S8        29.96F WCI  10
JAMESTOWN      CLOUDY    20  14  77 SW10      29.90F WCI   9
$$





USA.gov is the U.S. government's official web portal to all federal, state and local government web resources and services.